GW2805 Weather Reports


time (UTC)temp
C
wind
direction
speed
KPH
gust
KPH
rain 1hr
cm
rain 24hr
cm
rain mn
cm
humidity
%
barometer
mb
20260507023501 18 0 3.2 6.4 0.00 0.00 0.00 63 1018.0
20260507022955 19 0 3.2 6.4 0.00 0.00 0.00 62 1018.0
20260507022455 19 0 3.2 6.4 0.00 0.00 0.00 62 1017.9
20260507021954 20 0 3.2 8.0 0.00 0.00 0.00 61 1018.0
20260507021454 20 0 4.8 8.0 0.00 0.00 0.00 61 1017.9
20260507020953 20 0 1.6 11.3 0.00 0.00 0.00 60 1017.8
20260507020454 20 0 3.2 11.3 0.00 0.00 0.00 60 1017.9
20260507015952 20 0 4.8 9.7 0.00 0.00 0.00 59 1017.9
20260507015451 20 0 4.8 9.7 0.00 0.00 0.00 59 1017.9
20260507014951 20 0 3.2 11.3 0.00 0.00 0.00 59 1018.0
20260507014445 21 0 3.2 11.3 0.00 0.00 0.00 58 1017.9
20260507013942 21 0 6.4 11.3 0.00 0.00 0.00 58 1017.9
20260507013444 21 0 6.4 14.5 0.00 0.00 0.00 58 1018.0
20260507012941 21 0 6.4 14.5 0.00 0.00 0.00 57 1018.0
20260507012440 21 0 4.8 9.7 0.00 0.00 0.00 58 1017.9
20260507011939 21 0 6.4 11.3 0.00 0.00 0.00 58 1017.9
20260507011438 22 0 6.4 14.5 0.00 0.00 0.00 58 1017.9
20260507010937 22 0 6.4 14.5 0.00 0.00 0.00 57 1017.9
20260507010436 22 0 3.2 11.3 0.00 0.00 0.00 57 1017.9
20260507010215 22 0 6.4 9.7 0.00 0.00 0.00 56 1017.9
20260507005436 22 0 8.0 9.7 0.00 0.00 0.00 55 1017.9
20260507004937 23 0 6.4 11.3 0.00 0.00 0.00 54 1017.9
20260507004436 23 0 3.2 11.3 0.00 0.00 0.00 56 1017.9
20260507003937 23 0 4.8 11.3 0.00 0.00 0.00 55 1017.9
20260507003716 23 0 6.4 16.1 0.00 0.00 0.00 53 1018.0
20260507002931 23 0 4.8 16.1 0.00 0.00 0.00 53 1018.0
20260507002432 23 0 6.4 11.3 0.00 0.00 0.00 52 1018.0
20260507001933 24 0 4.8 14.5 0.00 0.00 0.00 52 1017.9
20260507001432 24 0 6.4 14.5 0.00 0.00 0.00 52 1017.8
20260507000930 25 0 3.2 8.0 0.00 0.00 0.00 52 1018.0
20260507000431 24 0 3.2 11.3 0.00 0.00 0.00 54 1017.9
20260506235931 24 0 3.2 11.3 0.00 0.00 0.00 53 1018.0
20260506235431 24 0 3.2 9.7 0.00 0.00 0.00 53 1017.9
20260506234931 23 268 4.8 14.5 0.00 0.00 0.00 54 1018.0
20260506234431 23 312 6.4 14.5 0.00 0.00 0.00 54 1017.9
20260506233932 24 295 6.4 14.5 0.00 0.00 0.00 54 1017.9
20260506233431 23 209 8.0 14.5 0.00 0.00 0.00 54 1017.9
20260506233211 23 0 8.0 14.5 0.00 0.00 0.00 54 1018.0
20260506232431 24 0 6.4 14.5 0.00 0.00 0.00 54 1018.0
20260506231945 24 0 6.4 16.1 0.00 0.00 0.00 53 1018.1
20260506231935 24 0 6.4 16.1 0.00 0.00 0.00 54 1018.0
20260506230920 25 0 8.0 17.7 0.00 0.00 0.00 52 1018.1
20260506230409 24 0 4.8 17.7 0.00 0.00 0.00 54 1018.0
20260506225907 24 0 8.0 17.7 0.00 0.00 0.00 51 1018.0
20260506225406 24 0 6.4 17.7 0.00 0.00 0.00 53 1018.2
20260506224905 24 0 8.0 16.1 0.00 0.00 0.00 52 1018.3
20260506224406 25 0 9.7 19.3 0.00 0.00 0.00 51 1018.3
20260506223905 24 0 4.8 19.3 0.00 0.00 0.00 52 1018.3
20260506223403 24 0 11.3 16.1 0.00 0.00 0.00 50 1018.4
20260506222903 25 0 9.7 17.7 0.00 0.00 0.00 50 1018.3
20260506222403 25 0 6.4 17.7 0.00 0.00 0.00 50 1018.4
20260506221903 25 0 11.3 16.1 0.00 0.00 0.00 50 1018.5
20260506221402 25 0 4.8 14.5 0.00 0.00 0.00 51 1018.5
20260506220903 24 0 6.4 14.5 0.00 0.00 0.00 51 1018.5
20260506220404 24 0 9.7 16.1 0.00 0.00 0.00 51 1018.7
20260506215903 24 0 8.0 16.1 0.00 0.00 0.00 50 1018.7
20260506215643 24 0 4.8 16.1 0.00 0.00 0.00 49 1018.8
20260506214902 24 0 6.4 16.1 0.00 0.00 0.00 52 1018.8
20260506214639 24 0 6.4 14.5 0.00 0.00 0.00 51 1018.8
20260506213902 23 0 3.2 14.5 0.00 0.00 0.00 51 1018.9
20260506213402 23 0 9.7 14.5 0.00 0.00 0.00 52 1018.9
20260506212902 23 0 3.2 14.5 0.00 0.00 0.00 49 1018.9
20260506212402 24 0 9.7 14.5 0.00 0.00 0.00 53 1019.1
20260506211903 23 0 3.2 16.1 0.00 0.00 0.00 54 1019.1
20260506211641 23 0 6.4 17.7 0.00 0.00 0.00 53 1019.2
20260506210903 23 0 8.0 17.7 0.00 0.00 0.00 52 1019.2
20260506210640 23 0 9.7 16.1 0.00 0.00 0.00 52 1019.2
20260506205857 23 0 8.0 16.1 0.00 0.00 0.00 53 1019.3
20260506205638 23 0 1.6 16.1 0.00 0.00 0.00 54 1019.3
20260506204916 23 0 4.8 17.7 0.00 0.00 0.00 53 1019.4
20260506204907 23 0 6.4 17.7 0.00 0.00 0.00 54 1019.3
20260506203855 23 0 6.4 17.7 0.00 0.00 0.00 55 1019.6
20260506203636 22 0 1.6 17.7 0.00 0.00 0.00 56 1019.5
20260506202854 22 0 6.4 14.5 0.00 0.00 0.00 56 1019.5
20260506202355 22 0 6.4 14.5 0.00 0.00 0.00 56 1019.6
20260506201854 22 0 3.2 11.3 0.00 0.00 0.00 57 1019.7
20260506201353 22 0 6.4 11.3 0.00 0.00 0.00 58 1019.8
20260506201133 21 0 3.2 11.3 0.00 0.00 0.00 56 1019.8
20260506200353 21 0 1.6 11.3 0.00 0.00 0.00 56 1019.8
20260506195853 21 0 6.4 16.1 0.00 0.00 0.00 59 1019.9
20260506195354 21 0 8.0 16.1 0.00 0.00 0.00 58 1019.9
20260506194852 21 0 4.8 9.7 0.00 0.00 0.00 60 1020.0
20260506194352 21 0 4.8 14.5 0.00 0.00 0.00 60 1020.1
20260506193852 20 0 6.4 14.5 0.00 0.00 0.00 61 1020.1
20260506193632 20 0 4.8 11.3 0.00 0.00 0.00 60 1020.1
20260506192852 20 0 4.8 11.3 0.00 0.00 0.00 62 1020.2
20260506192352 20 0 8.0 11.3 0.00 0.00 0.00 64 1020.3
20260506191915 20 0 4.8 14.5 0.00 0.00 0.00 64 1020.4
20260506191907 20 0 4.8 14.5 0.00 0.00 0.00 63 1020.4
20260506190852 20 0 9.7 16.1 0.00 0.00 0.00 64 1020.4
20260506190351 20 0 6.4 16.1 0.00 0.00 0.00 63 1020.5
20260506185852 20 0 6.4 16.1 0.00 0.00 0.00 66 1020.5
20260506185630 19 0 8.0 11.3 0.00 0.00 0.00 64 1020.4
20260506184851 19 0 6.4 11.3 0.00 0.00 0.00 65 1020.4
20260506184351 19 0 4.8 16.1 0.00 0.00 0.00 65 1020.5
20260506183852 18 0 6.4 16.1 0.00 0.00 0.00 65 1020.4
20260506183351 18 0 4.8 14.5 0.00 0.00 0.00 64 1020.5
20260506182851 18 0 4.8 8.0 0.00 0.00 0.00 65 1020.6
20260506182351 18 0 4.8 8.0 0.00 0.00 0.00 67 1020.5
20260506181851 18 0 3.2 9.7 0.00 0.00 0.00 65 1020.6
20260506181414 17 0 3.2 8.0 0.00 0.00 0.00 67 1020.6
20260506181406 18 0 4.8 9.7 0.00 0.00 0.00 67 1020.6
20260506180350 17 0 4.8 8.0 0.00 0.00 0.00 67 1020.7
20260506175851 17 0 3.2 8.0 0.00 0.00 0.00 68 1020.6
20260506175350 17 0 3.2 8.0 0.00 0.00 0.00 69 1020.6
20260506174851 17 0 1.6 8.0 0.00 0.00 0.00 69 1020.6
20260506174414 16 0 4.8 8.0 0.00 0.00 0.00 70 1020.8
20260506174406 16 0 3.2 8.0 0.00 0.00 0.00 69 1020.6
20260506173350 16 0 0.0 8.0 0.00 0.00 0.00 70 1020.8
20260506172849 16 0 4.8 8.0 0.00 0.00 0.00 71 1020.8
20260506172351 16 0 1.6 8.0 0.00 0.00 0.00 71 1020.8
20260506172128 16 0 3.2 6.4 0.00 0.00 0.00 71 1020.8
20260506171349 16 0 3.2 8.0 0.00 0.00 0.00 71 1020.8
20260506170848 16 0 3.2 8.0 0.00 0.00 0.00 72 1020.8
20260506170349 16 0 1.6 6.4 0.00 0.00 0.00 72 1020.9
20260506165849 16 0 1.6 6.4 0.00 0.00 0.00 72 1020.8
20260506165349 15 0 0.0 6.4 0.00 0.00 0.00 72 1020.8
20260506164849 15 0 3.2 6.4 0.00 0.00 0.00 73 1020.9
20260506164349 15 0 1.6 3.2 0.00 0.00 0.00 73 1020.9
20260506163847 15 0 1.6 4.8 0.00 0.00 0.00 73 1020.9
20260506163348 15 0 0.0 4.8 0.00 0.00 0.00 74 1020.9
20260506163130 15 0 0.0 3.2 0.00 0.00 0.00 74 1020.8
20260506162627 15 0 1.6 3.2 0.00 0.00 0.00 74 1020.8
20260506161847 15 0 0.0 3.2 0.00 0.00 0.00 74 1020.8
20260506161413 15 0 0.0 1.6 0.00 0.00 0.00 76 1020.9
20260506161405 15 0 1.6 3.2 0.00 0.00 0.00 75 1020.9
20260506160347 15 0 0.0 3.2 0.00 0.00 0.00 77 1020.9
20260506155848 15 0 0.0 3.2 0.00 0.00 0.00 77 1020.9
20260506155347 15 0 0.0 1.6 0.00 0.00 0.00 77 1020.9
20260506154846 14 0 0.0 1.6 0.00 0.00 0.00 78 1020.9
20260506154346 14 0 0.0 3.2 0.00 0.00 0.00 78 1020.8
20260506153846 14 0 0.0 3.2 0.00 0.00 0.00 78 1020.8
20260506153347 14 0 0.0 1.6 0.00 0.00 0.00 79 1020.8
20260506152848 14 0 0.0 3.2 0.00 0.00 0.00 79 1020.8
20260506152412 13 0 0.0 3.2 0.00 0.00 0.00 80 1020.7
20260506152402 13 0 1.6 3.2 0.00 0.00 0.00 80 1020.7
20260506151346 13 0 0.0 3.2 0.00 0.00 0.00 81 1020.8
20260506150846 13 0 0.0 4.8 0.00 0.00 0.00 81 1020.8
20260506150346 13 0 3.2 4.8 0.00 0.00 0.00 81 1020.8
20260506145846 13 0 1.6 3.2 0.00 0.00 0.00 82 1020.8
20260506145345 13 0 0.0 4.8 0.00 0.00 0.00 82 1020.8
20260506144845 13 0 0.0 4.8 0.00 0.00 0.00 82 1020.7
20260506144347 13 0 1.6 3.2 0.00 0.00 0.00 82 1020.7
20260506143845 13 0 1.6 3.2 0.00 0.00 0.00 83 1020.7
20260506143345 13 0 0.0 0.0 0.00 0.00 0.00 83 1020.7
20260506142845 13 0 0.0 1.6 0.00 0.00 0.00 83 1020.7
20260506142344 13 0 0.0 3.2 0.00 0.00 0.00 83 1020.7
20260506141844 13 0 0.0 3.2 0.00 0.00 0.00 83 1020.6
20260506141345 13 0 0.0 1.6 0.00 0.00 0.00 84 1020.5
20260506140844 12 0 0.0 4.8 0.00 0.00 0.00 84 1020.5
20260506140344 12 0 1.6 4.8 0.00 0.00 0.00 84 1020.4
20260506135849 12 0 0.0 3.2 0.00 0.00 0.00 84 1020.3
20260506135623 12 0 0.0 3.2 0.00 0.00 0.00 84 1020.3
20260506134843 12 0 0.0 3.2 0.00 0.00 0.00 84 1020.2
20260506134343 12 0 1.6 3.2 0.00 0.00 0.00 85 1020.2
20260506133844 12 0 1.6 3.2 0.00 0.00 0.00 85 1020.1
20260506133343 12 0 0.0 1.6 0.00 0.00 0.00 85 1020.1
20260506132844 12 0 0.0 0.0 0.00 0.00 0.00 85 1019.9
20260506132343 11 0 0.0 0.0 0.00 0.00 0.00 85 1019.8
20260506131843 11 0 0.0 0.0 0.00 0.00 0.00 85 1019.8
20260506131344 11 0 0.0 0.0 0.00 0.00 0.00 85 1019.9
20260506130843 11 0 0.0 0.0 0.00 0.00 0.00 85 1019.9
20260506130343 11 0 0.0 0.0 0.00 0.00 0.00 85 1019.8
20260506125843 11 0 0.0 0.0 0.00 0.00 0.00 85 1019.9
20260506125342 11 0 0.0 0.0 0.00 0.00 0.00 85 1019.8
20260506124843 11 0 0.0 0.0 0.00 0.00 0.00 85 1019.8
20260506124343 11 0 0.0 3.2 0.00 0.00 0.00 85 1019.8
20260506123840 11 0 0.0 3.2 0.00 0.00 0.00 85 1019.7
20260506123342 11 0 1.6 3.2 0.00 0.00 0.00 85 1019.7
20260506122842 11 0 1.6 3.2 0.00 0.00 0.00 85 1019.7
20260506122406 10 0 0.0 0.0 0.00 0.00 0.00 85 1019.7
20260506122357 11 0 0.0 1.6 0.00 0.00 0.00 85 1019.7
20260506121342 10 0 0.0 1.6 0.00 0.00 0.00 84 1019.7
20260506120906 10 0 0.0 0.0 0.00 0.00 0.00 84 1019.6
20260506120857 10 0 0.0 1.6 0.00 0.00 0.00 84 1019.7
20260506120120 10 0 0.0 0.0 0.00 0.00 0.00 84 1019.6
20260506115340 10 0 0.0 1.6 0.00 0.00 0.00 84 1019.6
20260506114840 11 0 0.0 1.6 0.00 0.00 0.00 84 1019.5
20260506114341 11 0 0.0 1.6 0.00 0.03 0.00 84 1019.4
20260506114119 11 0 0.0 3.2 0.00 0.03 0.00 83 1019.3
20260506113340 11 0 1.6 3.2 0.00 0.03 0.00 83 1019.4
20260506112842 11 0 0.0 0.0 0.00 0.03 0.00 83 1019.3
20260506112341 11 0 0.0 3.2 0.00 0.03 0.00 83 1019.3
20260506111840 11 0 0.0 3.2 0.00 0.03 0.00 83 1019.4
20260506111340 11 0 1.6 3.2 0.00 0.03 0.00 83 1019.4
20260506110840 11 0 0.0 1.6 0.00 0.03 0.00 82 1019.3
20260506110340 11 0 0.0 1.6 0.00 0.03 0.00 82 1019.2
20260506105839 11 0 0.0 1.6 0.00 0.03 0.00 82 1019.2
20260506105340 11 0 0.0 0.0 0.00 0.03 0.00 82 1019.1
20260506104839 11 0 0.0 1.6 0.00 0.03 0.00 82 1019.1
20260506104339 11 0 0.0 4.8 0.00 0.03 0.00 82 1019.1
20260506103837 11 0 1.6 4.8 0.00 0.03 0.00 81 1019.1
20260506103338 12 0 3.2 4.8 0.00 0.03 0.00 81 1019.1
20260506102838 12 0 0.0 0.0 0.00 0.03 0.00 81 1019.1
20260506102339 12 0 0.0 1.6 0.00 0.03 0.00 80 1019.1
20260506101839 12 0 0.0 1.6 0.00 0.03 0.00 80 1019.1
20260506101404 13 0 0.0 1.6 0.00 0.03 0.00 80 1019.1
20260506101354 12 0 0.0 1.6 0.00 0.03 0.00 80 1019.0
20260506100339 13 0 0.0 1.6 0.00 0.03 0.00 79 1019.1
20260506095838 13 0 0.0 1.6 0.00 0.03 0.00 79 1019.1
20260506095618 13 0 0.0 1.6 0.00 0.03 0.00 79 1019.1
20260506094839 13 0 0.0 1.6 0.00 0.03 0.00 78 1019.1
20260506094337 13 0 0.0 0.0 0.00 0.03 0.00 78 1019.1
20260506093838 13 0 0.0 0.0 0.00 0.03 0.00 78 1019.1
20260506093338 13 0 0.0 0.0 0.00 0.03 0.00 78 1019.1
20260506092839 13 0 0.0 1.6 0.00 0.03 0.00 78 1019.0
20260506092337 13 0 0.0 1.6 0.00 0.03 0.00 78 1019.1
20260506091837 13 0 0.0 1.6 0.00 0.03 0.00 78 1019.0
20260506091337 13 0 0.0 1.6 0.00 0.03 0.00 78 1019.1
20260506090837 13 0 0.0 0.0 0.00 0.03 0.00 78 1019.0
20260506090337 13 0 0.0 0.0 0.00 0.03 0.00 78 1019.0
20260506085838 13 0 0.0 0.0 0.00 0.03 0.00 78 1018.9
20260506085337 13 0 0.0 0.0 0.00 0.03 0.00 78 1019.0
20260506084837 13 0 0.0 0.0 0.00 0.03 0.00 78 1019.0
20260506084336 13 0 0.0 1.6 0.00 0.03 0.00 78 1019.0
20260506083833 13 0 0.0 1.6 0.00 0.03 0.00 78 1019.0
20260506083336 13 0 0.0 1.6 0.00 0.03 0.00 77 1019.1
20260506082836 13 0 0.0 1.6 0.00 0.03 0.00 77 1019.1
20260506082617 13 0 0.0 1.6 0.00 0.03 0.00 77 1019.1
20260506082113 13 0 0.0 1.6 0.00 0.03 0.00 77 1019.1
20260506081335 13 0 0.0 0.0 0.00 0.03 0.00 77 1019.1
20260506080837 13 0 0.0 0.0 0.00 0.03 0.00 76 1019.0
20260506080336 13 0 0.0 1.6 0.00 0.03 0.00 76 1019.1
20260506073334 13 0 0.0 1.6 0.00 0.03 0.00 77 1018.8
20260506072835 13 0 0.0 1.6 0.00 0.03 0.00 77 1018.9
20260506072334 13 0 0.0 1.6 0.00 0.03 0.00 76 1018.9
20260506071834 13 0 0.0 0.0 0.00 0.03 0.00 76 1018.8
20260506071333 13 0 0.0 0.0 0.00 0.03 0.00 76 1018.7
20260506070835 13 0 0.0 1.6 0.00 0.03 0.00 76 1018.7
20260506070334 13 0 0.0 1.6 0.00 0.03 0.00 76 1018.7
20260506062331 14 0 0.0 1.6 0.00 0.03 0.03 74 1018.5
20260506061832 14 0 0.0 0.0 0.00 0.03 0.03 74 1018.5
20260506061331 14 0 0.0 0.0 0.00 0.03 0.03 74 1018.4
20260506060831 14 0 0.0 0.0 0.00 0.03 0.03 74 1018.4
20260506060331 14 0 0.0 0.0 0.00 0.03 0.03 74 1018.3
20260506051331 14 0 1.6 3.2 0.00 0.03 0.03 72 1018.1
20260506051113 14 0 0.0 3.2 0.00 0.03 0.03 72 1018.0
20260506050331 14 0 1.6 4.8 0.00 0.03 0.03 72 1017.9
20260506044831 15 0 1.6 3.2 0.00 0.03 0.03 71 1017.8
20260506044330 15 0 1.6 3.2 0.00 0.03 0.03 71 1017.7
20260506043829 15 0 0.0 1.6 0.00 0.03 0.03 71 1017.7
20260506043613 15 0 0.0 1.6 0.00 0.03 0.03 71 1017.8
20260506043109 15 0 0.0 1.6 0.00 0.03 0.03 71 1017.7
20260506042328 15 0 0.0 1.6 0.00 0.03 0.03 71 1017.5
20260506041829 15 0 0.0 3.2 0.00 0.03 0.03 71 1017.6
20260506041328 15 0 0.0 3.2 0.00 0.03 0.03 71 1017.5
20260506040828 15 0 1.6 4.8 0.00 0.03 0.03 71 1017.3
20260506040351 15 0 0.0 4.8 0.00 0.03 0.03 71 1017.2
20260506040341 15 0 3.2 4.8 0.00 0.03 0.03 71 1017.3
20260506035327 15 0 1.6 4.8 0.00 0.03 0.03 71 1017.2
20260506035106 15 0 0.0 3.2 0.00 0.03 0.03 71 1017.2
20260506034329 15 0 0.0 3.2 0.00 0.03 0.03 71 1017.1
20260506033830 15 0 0.0 8.0 0.00 0.03 0.03 71 1017.0
20260506033330 15 0 1.6 11.3 0.00 0.03 0.03 71 1016.9
20260506033106 15 0 4.8 11.3 0.00 0.03 0.03 71 1016.8
20260506032327 15 0 1.6 6.4 0.00 0.03 0.03 71 1016.7
20260506031828 15 0 3.2 6.4 0.00 0.03 0.03 71 1016.7
20260506031328 15 0 3.2 8.0 0.00 0.03 0.03 70 1016.7
20260506031105 15 0 3.2 8.0 0.00 0.03 0.03 70 1016.7
20260506030328 15 0 3.2 6.4 0.00 0.03 0.03 70 1016.6
20260506025827 15 0 0.0 8.0 0.00 0.03 0.03 70 1016.5
20260506025329 16 0 1.6 8.0 0.00 0.03 0.03 69 1016.5
20260506024828 16 0 3.2 6.4 0.00 0.03 0.03 68 1016.3
20260506024329 16 0 0.0 3.2 0.00 0.03 0.03 68 1016.2
20260506023827 16 0 1.6 3.2 0.00 0.03 0.03 68 1016.2